Regional Weather Roundup
Issued by NWS

Home | Current Version | Previous Version | Text Only | Print | Product List | Glossary On
Versions: 1 2 3 4 5 6 7 8 9 10 11 12 13 14 15 16 17 18 19 20 21 22 23 24 25 26 27
000
ASUS42 KFFC 300503
RWRGA
WEATHER ROUNDUP FOR GEORGIA
NATIONAL WEATHER SERVICE PEACHTREE CITY GA
100 AM EDT MON MAY 30 2016

NOTE: "FAIR" INDICATES FEW OR NO CLOUDS BELOW 12,000 FEET WITH NO
SIGNIFICANT WEATHER AND/OR OBSTRUCTIONS TO VISIBILITY.

* = USE WITH CAUTION. THE STATIONS MARKED WITH AN ASTERISK MAY NOT
REPORT WEATHER SUCH AS PRECIPITATION, FOG, OR THUNDER AND ARE NOT
QUALITY CONTROLLED BY NWS.

THE REMARK "TC" DENOTES TEMPERATURE READING IN DEGREES CELSIUS.

GAZ001>058-300600-
NORTH GEORGIA

CITY           SKY/WX    TMP DP  RH WIND       PRES   REMARKS
ATLANTA        PTCLDY    73  63  70 S3        30.05F
ATHENS         CLEAR     66  62  87 CALM      30.04F
CHAMBLEE       CLEAR     71  61  70 CALM      30.05F
ROME           CLEAR     70  64  81 CALM      30.03S
WEST ATLANTA   CLEAR     70  63  78 CALM      30.05F
GAINESVILLE    CLEAR     68  60  75 CALM      30.08F
CARTERSVILLE   CLEAR     67  64  90 CALM      30.04F


CITY           SKY/WX    TMP DP  RH WIND       PRES   REMARKS
DALTON*        CLEAR     68  64  88 CALM      30.04S
MARIETTA       CLEAR     73  64  75 CALM      30.05F
CANTON*        CLEAR     68  63  83 CALM      30.08S
BLAIRSVILLE*     N/A    N/A N/A N/A MISG      30.10F HAZE
$$

GAZ059>098-102>109-300600-
CENTRAL GEORGIA

CITY           SKY/WX    TMP DP  RH WIND       PRES   REMARKS
AUGUSTA-BUSH   CLOUDY    72  61  68 N7        30.00S
AUGUSTA-DANIEL LGT RAIN  72  60  66 N8        30.01F
COLUMBUS       CLEAR     75  65  70 E7        30.03S
MACON          PTCLDY    72  63  73 NW3       30.03F
ROBINS AFB     PTCLDY    72  65  81 MISG      30.02F


CITY           SKY/WX    TMP DP  RH WIND       PRES   REMARKS
LAGRANGE*      CLEAR     70  69  95 CALM      30.04F
SYLVANIA*      CLOUDY    71  67  86 NW3       30.00S
MILLEDGEVILLE* PTCLDY    68  61  77 CALM      30.04S
$$

GAZ099>101-110>166-300600-
SOUTH GEORGIA

CITY           SKY/WX    TMP DP  RH WIND       PRES   REMARKS
SAVANNAH       CLOUDY    70  63  78 NW7       29.98S
VALDOSTA       CLEAR     70  66  87 CALM      30.01F
ALMA           MOCLDY    68  65  90 CALM      30.01F
ST SIMONS      CLOUDY    76  61  59 W3        29.99F
FT STEWART     CLOUDY    73  61  65 CALM      29.97F
ALBANY         CLOUDY    75  65  70 CALM      30.03F
HUNTER AFB     CLOUDY    70  67  89 W2        29.96S
MOODY AFB      PTCLDY    72  66  82 NE1       30.00F
BRUNSWICK      CLOUDY    79  63  57 CALM      30.00F


CITY           SKY/WX    TMP DP  RH WIND       PRES   REMARKS
BAINBRIDGE*    CLEAR     77  70  78 SW3       30.03S
MOULTRIE*      MOCLDY    75  68  78 CALM      30.03F
VIDALIA*       CLOUDY    73  61  64 NW5       30.02F
WAYCROSS*      MOCLDY    68  65  90 CALM      30.02F
DOUGLAS*       CLOUDY    73  64  73 CALM      30.03F
$$




USA.gov is the U.S. government's official web portal to all federal, state and local government web resources and services.